#timestamp,LO_Frequency,Hit,StdDev 
1557147615.4,286047004.4,N
1557147635.3,286047001.6,N
1557147655.1,286047001.6,N
1557147675.8,286047004.4,N
1557147695.7,286047000.2,N
1557147715.5,286047000.7,N
1557147735.4,286046998.8,N
1557147785.2,286047002.5,E
1557147795.1,286047000.4,N
1557147815.9,286046999.2,P
1557147835.7,286046997.6,P
1557147855.6,286046995.2,Y
1557147875.4,286046995.3,P
1557147895.2,286046996.1,N
1557147915.1,286046997.7,N
1557147916.0,286046997.7,N
1557147935.8,286046998.8,N
1557147955.7,286046998.7,N
1557147975.5,286046998.4,N
1557147995.3,286046999.1,N
1557148015.2,286046996.7,N
1557148035.9,286046997.4,N
1557148055.7,286046996.9,N
1557148075.6,286046998.7,N
1557148095.4,286046999.6,N
1557148115.3,286046999.3,N
1557148135.1,286046999.2,N
1557148136.0,286046999.2,N
1557148155.8,286046998.4,N
1557148175.7,286046998.9,N
1557148195.5,286046998.9,N
1557148215.3,286046999.6,N
1557148235.2,286046999.0,N
1557148255.0,286046999.4,N
1557148255.9,286046999.4,N
1557148275.8,286046999.2,N
1557148295.6,286046996.8,N
1557148315.4,286046999.0,N
1557148335.3,286046998.7,N
1557148355.1,286046998.1,N
1557148375.9,286047000.2,N
1557148395.7,286046998.7,N
1557148415.5,286046997.7,N
1557148465.4,286046998.7,E
1557148475.3,286046999.3,N
1557148495.2,286047001.0,P
1557148515.9,286047000.5,N
1557148535.7,286047000.5,N
1557148555.6,286047000.9,N
1557148575.4,286047001.1,N
1557148595.3,286047000.1,N
1557148615.1,286046999.9,N
1557148616.0,286046999.9,N
1557148635.8,286047000.3,N
1557148655.7,286046998.3,Y
1557148675.5,286046999.0,P
1557148695.3,286047000.8,N
1557148715.2,286047000.1,N
1557148735.0,286046999.3,N
1557148735.9,286047011.9,Y
1557148755.8,286046998.8,P
1557148775.6,286046999.4,N
1557148795.4,286046997.4,P
1557148815.3,286046999.3,N
1557148835.1,286046999.6,N
1557148855.8,286046998.7,N
1557148875.7,286047000.4,N
1557148895.5,286047002.5,N
1557148915.4,286047002.3,N
1557148935.2,286047001.0,N
1557148955.0,286046998.1,N
1557148955.9,286046998.1,N
1557148975.8,286046999.4,N
1557148995.6,286046998.7,N
1557149015.4,286046998.4,N
1557149035.3,286046996.9,N
1557149055.1,286046995.3,Y
1557149075.9,286046995.3,P
1557149095.7,286046999.4,N
1557149115.6,286047000.2,N
1557149135.4,286046999.9,N
1557149155.2,286047001.1,N
1557149175.1,286046999.2,N
1557149176.0,286046999.2,N
1557149195.8,286046998.8,N
1557149215.6,286047001.1,N
1557149235.5,286046999.7,N
1557149255.3,286046999.7,N
1557149275.1,286047000.5,N
1557149295.9,286047001.2,N
1557149315.7,286047000.5,N
1557149335.6,286046998.2,N
1557149355.4,286047002.3,N
1557149375.2,286047001.8,N
1557149395.1,286047004.2,N
1557149396.0,286047004.2,N
1557149415.8,286047005.9,Y
1557149435.7,286047005.6,P
1557149455.5,286047005.4,N
1557149475.3,286047004.9,N
1557149495.2,286047004.6,N
1557149515.0,286047004.7,N
1557149515.9,286047004.7,N
1557149535.7,286047004.6,N
1557149555.6,286047006.4,Y
1557149575.4,286047004.1,P
1557149595.3,286047003.1,P
1557149615.1,286047004.2,P
1557149616.0,286047004.2,Y
1557149635.8,286046998.8,P
1557149655.7,286046996.8,N
1557149675.5,286046996.8,N
1557149695.3,286046995.8,N
1557149715.2,286046993.8,N
1557149735.0,286046996.2,N
1557149735.9,286046996.2,N
1557149755.8,286046996.1,N
1557149775.6,286046995.9,N
1557149795.4,286046993.7,N
1557149815.3,286046994.0,N
1557149835.1,286046993.7,N
1557149855.8,286046994.7,N
1557149875.7,286046992.9,N
1557149895.5,286046992.0,Y
1557149915.4,286046995.3,P
1557149935.2,286046995.4,P
1557149955.0,286046997.7,P
1557149955.9,286046997.7,N
1557149975.8,286046999.6,N
1557149995.6,286046998.8,N
1557150015.4,286046998.7,N
1557150035.3,286046999.5,N
1557150055.1,286046999.5,N
1557150075.9,286046999.4,N
1557150095.7,286046996.9,N
1557150115.5,286046999.4,N
1557150135.4,286046997.1,N
1557150155.2,286046997.8,N
1557150175.1,286046995.7,N
1557150195.7,286046997.3,N
1557150215.8,286046994.9,Y
1557150235.7,286046999.4,P
1557150255.5,286046998.9,N
1557150275.3,286046998.8,N
1557150295.2,286046999.6,N
1557150315.0,286046994.9,Y
1557150315.9,286046994.9,P
1557150335.8,286046997.7,N
1557150355.6,286046999.0,N
1557150375.4,286046996.5,N
1557150395.3,286046998.5,N
1557150415.1,286046999.5,N
1557150435.9,286046998.8,N
1557150455.7,286046998.3,N
1557150475.5,286047001.1,N
1557150495.4,286046998.7,N
1557150515.2,286046998.4,N
1557150535.0,286047000.6,N
1557150535.9,286047000.6,N
1557150555.8,286047001.1,N
1557150575.6,286046998.3,N
1557150595.5,286046999.1,N
1557150615.3,286046999.6,N
1557150635.1,286046998.9,N
1557150655.9,286046998.2,N
1557150675.7,286047000.5,N
1557150695.5,286047001.1,N
1557150715.4,286047000.6,N
1557150735.2,286047000.3,N
1557150755.1,286046998.5,N
1557150756.0,286046998.5,N
1557150775.8,286046998.3,N
1557150795.6,286046998.1,N
1557150815.5,286046998.1,N
1557150835.3,286047001.1,N
1557150855.1,286047001.2,N
1557150875.9,286047000.4,N
1557150895.7,286047000.1,N
1557150915.6,286046998.6,N
1557150935.4,286046999.5,N
1557150955.2,286046997.1,N
1557150975.1,286046997.7,N
1557150976.0,286046997.7,N
1557150995.8,286046998.8,N
1557151015.6,286046997.0,N
1557151035.5,286046997.3,N
1557151055.3,286046999.2,N
1557151075.2,286047000.5,N
1557151095.0,286047002.5,N
1557151095.9,286047002.5,N
1557151115.7,286047002.8,N
1557151135.6,286046998.1,N
1557151155.4,286046998.2,N
1557151175.3,286046996.5,N
1557151195.1,286046994.9,Y
